Time,TemperatureF,DewpointF,PressureIn,WindDirection,WindDirectionDegrees,WindSpeedMPH,WindSpeedGustMPH,Humidity,HourlyPrecipIn,Conditions,Clouds,dailyrainin,SoftwareType,DateUTC
2013-05-22 00:01:00,66.6,66.0,29.91,SW,225,2.7,2.7,98,0.00,,---,0.00,VWS V14.01,2013-05-22 04:01:00,
2013-05-22 00:06:00,66.9,66.3,29.91,SW,225,5.8,5.8,98,0.00,,---,0.00,VWS V14.01,2013-05-22 04:06:00,
2013-05-22 00:11:00,67.1,66.5,29.91,West,270,3.1,3.1,98,0.00,,---,0.00,VWS V14.01,2013-05-22 04:11:00,
2013-05-22 00:16:00,67.3,66.7,29.91,SW,225,2.7,4.0,98,0.00,,---,0.00,VWS V14.01,2013-05-22 04:16:00,
2013-05-22 00:21:00,67.5,66.9,29.91,West,270,2.2,3.6,98,0.00,,---,0.00,VWS V14.01,2013-05-22 04:21:00,
2013-05-22 00:26:00,67.5,66.9,29.91,WSW,248,0.0,3.1,98,0.00,,---,0.00,VWS V14.01,2013-05-22 04:26:00,
2013-05-22 00:31:00,67.6,67.1,29.91,West,270,2.7,4.0,98,0.00,,---,0.00,VWS V14.01,2013-05-22 04:31:00,
2013-05-22 00:36:00,67.8,67.2,29.91,WSW,248,3.6,4.0,98,0.00,,---,0.00,VWS V14.01,2013-05-22 04:36:00,
2013-05-22 00:41:00,68.0,67.4,29.91,SW,225,3.1,3.6,98,0.00,,---,0.00,VWS V14.01,2013-05-22 04:41:00,
2013-05-22 00:46:00,68.0,67.4,29.91,West,270,0.0,4.0,98,0.00,,---,0.00,VWS V14.01,2013-05-22 04:46:00,
2013-05-22 00:51:00,68.2,67.3,29.91,WSW,248,5.4,5.4,97,0.00,,---,0.00,VWS V14.01,2013-05-22 04:51:00,
2013-05-22 00:56:00,68.4,67.2,29.91,NE,45,2.2,2.2,96,0.00,,---,0.00,VWS V14.01,2013-05-22 04:56:00,
2013-05-22 01:01:00,68.4,66.9,29.91,WSW,248,0.0,0.0,95,0.00,,---,0.00,VWS V14.01,2013-05-22 05:01:00,
2013-05-22 01:06:00,68.0,66.5,29.91,SW,225,0.0,0.0,95,0.00,,---,0.00,VWS V14.01,2013-05-22 05:06:00,
2013-05-22 01:11:00,68.0,66.5,29.91,SW,225,0.0,0.0,95,0.00,,---,0.00,VWS V14.01,2013-05-22 05:11:00,
2013-05-22 01:16:00,68.0,66.5,29.91,WSW,248,0.0,0.0,95,0.00,,---,0.00,VWS V14.01,2013-05-22 05:16:00,
2013-05-22 01:21:00,68.2,66.4,29.91,SW,225,3.6,3.6,94,0.00,,---,0.00,VWS V14.01,2013-05-22 05:21:00,
2013-05-22 01:26:00,68.4,66.6,29.88,South,180,4.9,5.4,94,0.00,,---,0.00,VWS V14.01,2013-05-22 05:26:00,
2013-05-22 01:31:00,68.5,66.4,29.88,SW,225,4.9,4.9,93,0.00,,---,0.00,VWS V14.01,2013-05-22 05:31:00,
2013-05-22 01:36:00,68.7,66.3,29.88,West,270,4.0,4.0,92,0.00,,---,0.00,VWS V14.01,2013-05-22 05:36:00,
2013-05-22 01:41:00,68.5,65.8,29.88,SW,225,2.7,3.1,91,0.00,,---,0.00,VWS V14.01,2013-05-22 05:41:00,
2013-05-22 01:46:00,68.5,65.8,29.88,SW,225,0.0,0.0,91,0.00,,---,0.00,VWS V14.01,2013-05-22 05:46:00,
2013-05-22 01:51:00,68.5,65.8,29.88,SW,225,5.4,5.4,91,0.00,,---,0.00,VWS V14.01,2013-05-22 05:51:00,
2013-05-22 01:56:00,68.4,65.6,29.91,WSW,248,4.0,4.0,91,0.00,,---,0.00,VWS V14.01,2013-05-22 05:56:00,
2013-05-22 02:01:00,68.5,65.8,29.91,SW,225,2.7,4.9,91,0.00,,---,0.00,VWS V14.01,2013-05-22 06:01:00,
2013-05-22 02:06:00,68.5,65.5,29.91,West,270,0.0,4.0,90,0.00,,---,0.00,VWS V14.01,2013-05-22 06:06:00,
2013-05-22 02:11:00,68.7,65.7,29.88,SW,225,0.0,2.7,90,0.00,,---,0.00,VWS V14.01,2013-05-22 06:11:00,
2013-05-22 02:16:00,68.5,65.2,29.88,WSW,248,2.2,2.2,89,0.00,,---,0.00,VWS V14.01,2013-05-22 06:16:00,
2013-05-22 02:21:00,68.5,65.2,29.88,SW,225,0.0,0.0,89,0.00,,---,0.00,VWS V14.01,2013-05-22 06:21:00,
2013-05-22 02:26:00,68.4,65.0,29.88,West,270,0.0,2.2,89,0.00,,---,0.00,VWS V14.01,2013-05-22 06:26:00,
2013-05-22 02:31:00,68.4,65.0,29.88,SW,225,4.0,4.0,89,0.00,,---,0.00,VWS V14.01,2013-05-22 06:31:00,
2013-05-22 02:36:00,68.5,65.2,29.88,West,270,3.1,4.0,89,0.00,,---,0.00,VWS V14.01,2013-05-22 06:36:00,
2013-05-22 02:41:00,68.5,65.2,29.88,SW,225,0.0,2.2,89,0.00,,---,0.00,VWS V14.01,2013-05-22 06:41:00,
2013-05-22 02:46:00,68.5,65.2,29.88,SSW,202,2.7,4.0,89,0.00,,---,0.00,VWS V14.01,2013-05-22 06:46:00,
2013-05-22 02:51:00,68.5,65.2,29.88,WSW,248,2.2,4.0,89,0.00,,---,0.00,VWS V14.01,2013-05-22 06:51:00,
2013-05-22 03:10:00,68.4,65.0,29.88,SW,225,2.2,2.2,89,0.00,,---,0.00,VWS V14.01,2013-05-22 07:10:00,
2013-05-22 03:15:00,68.4,65.0,29.88,SW,225,2.2,2.2,89,0.00,,---,0.00,VWS V14.01,2013-05-22 07:15:00,
2013-05-22 03:20:00,68.5,65.2,29.88,WSW,248,5.4,5.4,89,0.00,,---,0.00,VWS V14.01,2013-05-22 07:20:00,
2013-05-22 03:25:00,68.7,65.3,29.88,SSE,158,0.0,2.7,89,0.00,,---,0.00,VWS V14.01,2013-05-22 07:25:00,
2013-05-22 03:30:00,68.7,65.3,29.88,SW,225,0.0,0.0,89,0.00,,---,0.00,VWS V14.01,2013-05-22 07:30:00,
2013-05-22 03:35:00,68.7,65.0,29.88,South,180,2.2,2.2,88,0.00,,---,0.00,VWS V14.01,2013-05-22 07:35:00,
2013-05-22 03:40:00,68.9,65.2,29.88,SW,225,4.9,4.9,88,0.00,,---,0.00,VWS V14.01,2013-05-22 07:40:00,
2013-05-22 03:45:00,69.1,65.4,29.88,SW,225,0.0,0.0,88,0.00,,---,0.00,VWS V14.01,2013-05-22 07:45:00,
2013-05-22 03:50:00,69.3,65.6,29.88,SE,135,3.6,3.6,88,0.00,,---,0.00,VWS V14.01,2013-05-22 07:50:00,
2013-05-22 03:55:00,69.3,65.2,29.88,WSW,248,3.6,3.6,87,0.00,,---,0.00,VWS V14.01,2013-05-22 07:55:00,
2013-05-22 04:00:00,69.3,65.2,29.88,South,180,2.7,2.7,87,0.00,,---,0.00,VWS V14.01,2013-05-22 08:00:00,
2013-05-22 04:05:00,69.4,65.1,29.88,SW,225,3.6,4.5,86,0.00,,---,0.00,VWS V14.01,2013-05-22 08:05:00,
2013-05-22 04:10:00,69.4,65.1,29.88,WSW,248,3.1,3.1,86,0.00,,---,0.00,VWS V14.01,2013-05-22 08:10:00,
2013-05-22 04:15:00,69.6,65.2,29.88,West,270,3.1,4.0,86,0.00,,---,0.00,VWS V14.01,2013-05-22 08:15:00,
2013-05-22 04:20:00,69.6,65.2,29.88,SW,225,0.0,2.7,86,0.00,,---,0.00,VWS V14.01,2013-05-22 08:20:00,
2013-05-22 04:25:00,69.6,65.2,29.88,West,270,0.0,0.0,86,0.00,,---,0.00,VWS V14.01,2013-05-22 08:25:00,
2013-05-22 04:30:00,69.4,65.1,29.88,WSW,248,0.0,3.1,86,0.00,,---,0.00,VWS V14.01,2013-05-22 08:30:00,
2013-05-22 04:35:00,69.4,65.4,29.88,SW,225,3.6,3.6,87,0.00,,---,0.00,VWS V14.01,2013-05-22 08:35:00,
2013-05-22 04:40:00,69.4,65.4,29.88,WSW,248,4.0,4.0,87,0.00,,---,0.00,VWS V14.01,2013-05-22 08:40:00,
2013-05-22 04:45:00,69.4,65.4,29.88,WSW,248,0.0,2.7,87,0.00,,---,0.00,VWS V14.01,2013-05-22 08:45:00,
2013-05-22 04:50:00,69.3,65.2,29.88,SSW,202,2.7,2.7,87,0.00,,---,0.00,VWS V14.01,2013-05-22 08:50:00,
2013-05-22 04:55:00,69.6,65.6,29.88,SW,225,5.4,5.4,87,0.00,,---,0.00,VWS V14.01,2013-05-22 08:55:00,
2013-05-22 05:00:00,69.6,65.6,29.88,SW,225,2.2,2.2,87,0.00,,---,0.00,VWS V14.01,2013-05-22 09:00:00,
2013-05-22 05:05:00,69.6,65.6,29.88,West,270,2.7,2.7,87,0.00,,---,0.00,VWS V14.01,2013-05-22 09:05:00,
2013-05-22 05:10:00,69.6,65.6,29.88,West,270,0.0,0.0,87,0.00,,---,0.00,VWS V14.01,2013-05-22 09:10:00,
2013-05-22 05:15:00,69.6,65.6,29.88,WSW,248,4.9,4.9,87,0.00,,---,0.00,VWS V14.01,2013-05-22 09:15:00,
2013-05-22 05:20:00,69.8,65.4,29.88,SSE,158,2.2,2.2,86,0.00,,---,0.00,VWS V14.01,2013-05-22 09:20:00,
2013-05-22 05:25:00,69.8,65.1,29.88,West,270,0.0,0.0,85,0.00,,---,0.00,VWS V14.01,2013-05-22 09:25:00,
2013-05-22 05:30:00,69.6,65.2,29.88,SW,225,2.2,4.9,86,0.00,,---,0.00,VWS V14.01,2013-05-22 09:30:00,
2013-05-22 05:35:00,69.6,65.2,29.88,NW,315,0.0,0.0,86,0.00,,---,0.00,VWS V14.01,2013-05-22 09:35:00,
2013-05-22 05:40:00,69.4,65.4,29.88,SW,225,2.7,3.6,87,0.00,,---,0.00,VWS V14.01,2013-05-22 09:40:00,
2013-05-22 05:45:00,69.4,65.4,29.88,West,270,0.0,0.0,87,0.00,,---,0.00,VWS V14.01,2013-05-22 09:45:00,
2013-05-22 05:50:00,69.6,65.9,29.88,West,270,5.4,5.4,88,0.00,,---,0.00,VWS V14.01,2013-05-22 09:50:00,
2013-05-22 05:55:00,69.6,65.9,29.88,West,270,3.6,3.6,88,0.00,,---,0.00,VWS V14.01,2013-05-22 09:55:00,
2013-05-22 06:00:00,69.8,65.8,29.88,SW,225,5.4,5.4,87,0.00,,---,0.00,VWS V14.01,2013-05-22 10:00:00,
2013-05-22 06:05:00,69.8,65.8,29.88,SW,225,2.7,2.7,87,0.00,,---,0.00,VWS V14.01,2013-05-22 10:05:00,
2013-05-22 06:10:00,69.8,65.8,29.91,SW,225,2.7,2.7,87,0.00,,---,0.00,VWS V14.01,2013-05-22 10:10:00,
2013-05-22 06:15:00,69.8,65.8,29.91,SW,225,4.0,4.5,87,0.00,,---,0.00,VWS V14.01,2013-05-22 10:15:00,
2013-05-22 06:20:00,69.8,65.8,29.91,SW,225,0.0,2.7,87,0.00,,---,0.00,VWS V14.01,2013-05-22 10:20:00,
2013-05-22 06:25:00,69.8,65.8,29.91,SW,225,3.1,3.1,87,0.00,,---,0.00,VWS V14.01,2013-05-22 10:25:00,
2013-05-22 06:30:00,69.8,65.8,29.91,SW,225,4.0,4.0,87,0.00,,---,0.00,VWS V14.01,2013-05-22 10:30:00,
2013-05-22 06:35:00,69.8,65.8,29.91,South,180,0.0,0.0,87,0.00,,---,0.00,VWS V14.01,2013-05-22 10:35:00,
2013-05-22 06:40:00,70.0,65.9,29.91,SW,225,3.1,8.7,87,0.00,,---,0.00,VWS V14.01,2013-05-22 10:40:00,
2013-05-22 06:45:00,70.0,65.9,29.91,WSW,248,0.0,0.0,87,0.00,,---,0.00,VWS V14.01,2013-05-22 10:45:00,
2013-05-22 06:50:00,70.0,65.9,29.91,SW,225,4.0,4.0,87,0.00,,---,0.00,VWS V14.01,2013-05-22 10:50:00,
2013-05-22 06:55:00,70.0,65.9,29.91,South,180,3.6,4.0,87,0.00,,---,0.00,VWS V14.01,2013-05-22 10:55:00,
2013-05-22 07:00:00,70.2,65.8,29.91,SSW,202,3.1,3.1,86,0.00,,---,0.00,VWS V14.01,2013-05-22 11:00:00,
2013-05-22 07:05:00,70.2,65.8,29.91,South,180,4.0,4.0,86,0.00,,---,0.00,VWS V14.01,2013-05-22 11:05:00,
2013-05-22 07:10:00,70.2,65.8,29.91,SW,225,4.9,4.9,86,0.00,,---,0.00,VWS V14.01,2013-05-22 11:10:00,
2013-05-22 07:15:00,70.3,66.0,29.91,WSW,248,3.6,5.4,86,0.00,,---,0.00,VWS V14.01,2013-05-22 11:15:00,
2013-05-22 07:20:00,70.3,66.0,29.91,SW,225,4.0,4.0,86,0.00,,---,0.00,VWS V14.01,2013-05-22 11:20:00,
2013-05-22 07:25:00,70.3,65.6,29.91,West,270,4.0,5.4,85,0.00,,---,0.00,VWS V14.01,2013-05-22 11:25:00,
2013-05-22 07:30:00,70.3,65.6,29.91,SW,225,4.0,4.0,85,0.00,,---,0.00,VWS V14.01,2013-05-22 11:30:00,
2013-05-22 07:35:00,70.7,66.0,29.91,SW,225,0.0,2.7,85,0.00,,---,0.00,VWS V14.01,2013-05-22 11:35:00,
2013-05-22 07:40:00,70.9,65.5,29.91,West,270,3.6,3.6,83,0.00,,---,0.00,VWS V14.01,2013-05-22 11:40:00,
2013-05-22 07:45:00,71.1,65.3,29.91,SW,225,3.1,3.1,82,0.00,,---,0.00,VWS V14.01,2013-05-22 11:45:00,
2013-05-22 07:50:00,71.2,65.1,29.91,West,270,0.0,3.6,81,0.00,,---,0.00,VWS V14.01,2013-05-22 11:50:00,
2013-05-22 07:55:00,71.2,65.1,29.91,SW,225,2.7,2.7,81,0.00,,---,0.00,VWS V14.01,2013-05-22 11:55:00,
2013-05-22 08:00:00,71.8,65.3,29.91,West,270,4.0,4.0,80,0.00,,---,0.00,VWS V14.01,2013-05-22 12:00:00,
2013-05-22 08:05:00,72.1,65.3,29.91,WSW,248,5.4,5.8,79,0.00,,---,0.00,VWS V14.01,2013-05-22 12:05:00,
2013-05-22 08:10:00,72.9,64.9,29.91,SW,225,6.3,6.3,76,0.00,,---,0.00,VWS V14.01,2013-05-22 12:10:00,
2013-05-22 08:15:00,73.9,65.5,29.91,SW,225,3.1,5.4,75,0.00,,---,0.00,VWS V14.01,2013-05-22 12:15:00,
2013-05-22 08:20:00,74.5,64.1,29.91,WSW,248,4.0,4.0,70,0.00,,---,0.00,VWS V14.01,2013-05-22 12:20:00,
2013-05-22 08:25:00,74.7,63.4,29.91,WSW,248,3.1,3.1,68,0.00,,---,0.00,VWS V14.01,2013-05-22 12:25:00,
2013-05-22 08:30:00,74.7,63.0,29.91,West,270,3.6,3.6,67,0.00,,---,0.00,VWS V14.01,2013-05-22 12:30:00,
2013-05-22 08:35:00,74.8,63.6,29.91,West,270,3.6,3.6,68,0.00,,---,0.00,VWS V14.01,2013-05-22 12:35:00,
2013-05-22 08:40:00,75.2,63.5,29.91,SW,225,3.1,3.6,67,0.00,,---,0.00,VWS V14.01,2013-05-22 12:40:00,
2013-05-22 08:45:00,75.2,62.2,29.91,NW,315,4.9,4.9,64,0.00,,---,0.00,VWS V14.01,2013-05-22 12:45:00,
2013-05-22 08:50:00,75.4,62.8,29.91,SW,225,8.1,8.1,65,0.00,,---,0.00,VWS V14.01,2013-05-22 12:50:00,
2013-05-22 08:55:00,75.6,62.5,29.91,West,270,3.6,5.8,64,0.00,,---,0.00,VWS V14.01,2013-05-22 12:55:00,
2013-05-22 09:00:00,75.6,62.1,29.91,SW,225,6.3,6.3,63,0.00,,---,0.00,VWS V14.01,2013-05-22 13:00:00,
2013-05-22 09:05:00,75.7,62.7,29.91,SW,225,4.9,4.9,64,0.00,,---,0.00,VWS V14.01,2013-05-22 13:05:00,
2013-05-22 09:10:00,75.9,62.9,29.91,SW,225,2.2,4.0,64,0.00,,---,0.00,VWS V14.01,2013-05-22 13:10:00,
2013-05-22 09:15:00,75.9,62.4,29.91,WSW,248,4.5,5.4,63,0.00,,---,0.00,VWS V14.01,2013-05-22 13:15:00,
2013-05-22 09:20:00,76.8,64.2,29.91,SSW,202,7.2,7.2,65,0.00,,---,0.00,VWS V14.01,2013-05-22 13:20:00,
2013-05-22 09:25:00,76.6,62.2,29.91,WNW,292,4.0,5.4,61,0.00,,---,0.00,VWS V14.01,2013-05-22 13:25:00,
2013-05-22 09:30:00,76.6,61.7,29.91,SW,225,4.0,7.2,60,0.00,,---,0.00,VWS V14.01,2013-05-22 13:30:00,
2013-05-22 09:35:00,77.2,62.2,29.91,WSW,248,5.8,5.8,60,0.00,,---,0.00,VWS V14.01,2013-05-22 13:35:00,
2013-05-22 09:40:00,76.3,61.4,29.91,NNW,338,3.1,3.1,60,0.00,,---,0.00,VWS V14.01,2013-05-22 13:40:00,
2013-05-22 09:45:00,76.3,61.9,29.91,WSW,248,6.3,6.3,61,0.00,,---,0.00,VWS V14.01,2013-05-22 13:45:00,
2013-05-22 09:50:00,76.5,61.6,29.91,SW,225,2.7,5.8,60,0.00,,---,0.00,VWS V14.01,2013-05-22 13:50:00,
2013-05-22 09:55:00,76.8,62.4,29.91,South,180,2.7,2.7,61,0.00,,---,0.00,VWS V14.01,2013-05-22 13:55:00,
2013-05-22 10:00:00,76.6,59.8,29.91,SW,225,5.8,5.8,56,0.00,,---,0.00,VWS V14.01,2013-05-22 14:00:00,
2013-05-22 10:05:00,77.0,61.1,29.91,SW,225,3.1,3.6,58,0.00,,---,0.00,VWS V14.01,2013-05-22 14:05:00,
2013-05-22 10:10:00,77.2,60.3,29.91,West,270,5.4,5.4,56,0.00,,---,0.00,VWS V14.01,2013-05-22 14:10:00,
2013-05-22 10:15:00,76.6,59.8,29.91,SW,225,3.6,3.6,56,0.00,,---,0.00,VWS V14.01,2013-05-22 14:15:00,
2013-05-22 10:20:00,77.0,61.6,29.91,South,180,3.1,3.1,59,0.00,,---,0.00,VWS V14.01,2013-05-22 14:20:00,
2013-05-22 10:25:00,76.5,60.1,29.91,WNW,292,4.0,4.0,57,0.00,,---,0.00,VWS V14.01,2013-05-22 14:25:00,
2013-05-22 10:30:00,77.2,60.3,29.91,West,270,9.2,9.2,56,0.00,,---,0.00,VWS V14.01,2013-05-22 14:30:00,
2013-05-22 10:35:00,78.1,61.6,29.91,South,180,3.1,3.1,57,0.00,,---,0.00,VWS V14.01,2013-05-22 14:35:00,
2013-05-22 10:40:00,78.3,59.2,29.94,SW,225,2.2,4.0,52,0.00,,---,0.00,VWS V14.01,2013-05-22 14:40:00,
2013-05-22 10:45:00,79.0,60.9,29.94,SSW,202,2.7,2.7,54,0.00,,---,0.00,VWS V14.01,2013-05-22 14:45:00,
2013-05-22 10:50:00,78.1,59.0,29.94,SW,225,5.4,5.4,52,0.00,,---,0.00,VWS V14.01,2013-05-22 14:50:00,
2013-05-22 10:55:00,78.4,59.9,29.91,SW,225,2.7,2.7,53,0.00,,---,0.00,VWS V14.01,2013-05-22 14:55:00,
2013-05-22 11:00:00,79.9,61.8,29.91,SW,225,3.6,3.6,54,0.00,,---,0.00,VWS V14.01,2013-05-22 15:00:00,
2013-05-22 11:05:00,79.7,58.9,29.91,West,270,6.3,7.6,49,0.00,,---,0.00,VWS V14.01,2013-05-22 15:05:00,
2013-05-22 11:10:00,80.1,59.8,29.91,NNW,338,0.0,0.0,50,0.00,,---,0.00,VWS V14.01,2013-05-22 15:10:00,
2013-05-22 11:15:00,81.0,59.4,29.91,West,270,5.4,5.4,48,0.00,,---,0.00,VWS V14.01,2013-05-22 15:15:00,
2013-05-22 11:20:00,80.8,58.7,29.91,WSW,248,8.7,8.7,47,0.00,,---,0.00,VWS V14.01,2013-05-22 15:20:00,
2013-05-22 11:25:00,80.8,56.9,29.91,WSW,248,8.3,8.3,44,0.00,,---,0.00,VWS V14.01,2013-05-22 15:25:00,
2013-05-22 11:30:00,80.8,57.5,29.91,SW,225,3.6,8.1,45,0.00,,---,0.00,VWS V14.01,2013-05-22 15:30:00,
2013-05-22 11:35:00,81.1,57.8,29.91,WNW,292,5.4,7.2,45,0.00,,---,0.00,VWS V14.01,2013-05-22 15:35:00,
2013-05-22 11:40:00,81.0,57.6,29.91,South,180,4.0,4.0,45,0.00,,---,0.00,VWS V14.01,2013-05-22 15:40:00,
2013-05-22 11:45:00,81.9,59.1,29.91,SW,225,5.4,6.7,46,0.00,,---,0.00,VWS V14.01,2013-05-22 15:45:00,
2013-05-22 11:50:00,82.0,57.4,29.91,SW,225,4.0,5.4,43,0.00,,---,0.00,VWS V14.01,2013-05-22 15:50:00,
2013-05-22 11:55:00,82.2,56.9,29.91,West,270,4.9,8.7,42,0.00,,---,0.00,VWS V14.01,2013-05-22 15:55:00,
2013-05-22 12:00:00,82.8,57.3,29.91,SW,225,3.1,4.5,42,0.00,,---,0.00,VWS V14.01,2013-05-22 16:00:00,
2013-05-22 12:05:00,82.9,57.5,29.91,SW,225,4.9,4.9,42,0.00,,---,0.00,VWS V14.01,2013-05-22 16:05:00,
2013-05-22 12:10:00,82.6,48.9,29.91,SSW,202,6.3,11.0,31,0.00,,---,0.00,VWS V14.01,2013-05-22 16:10:00,
2013-05-22 12:15:00,82.9,48.3,29.91,NW,315,3.1,4.0,30,0.00,,---,0.00,VWS V14.01,2013-05-22 16:15:00,
2013-05-22 12:20:00,84.0,49.3,29.91,SW,225,3.6,3.6,30,0.00,,---,0.00,VWS V14.01,2013-05-22 16:20:00,
2013-05-22 12:25:00,83.3,40.5,29.91,NW,315,3.1,3.1,22,0.00,,---,0.00,VWS V14.01,2013-05-22 16:25:00,
2013-05-22 12:30:00,84.0,39.9,29.91,South,180,6.3,6.3,21,0.00,,---,0.00,VWS V14.01,2013-05-22 16:30:00,
2013-05-22 12:35:00,83.8,39.8,29.91,West,270,4.0,5.8,21,0.00,,---,0.00,VWS V14.01,2013-05-22 16:35:00,
2013-05-22 12:40:00,83.8,38.5,29.88,West,270,3.6,4.0,20,0.00,,---,0.00,VWS V14.01,2013-05-22 16:40:00,
2013-05-22 12:45:00,84.7,38.0,29.88,WNW,292,3.1,4.0,19,0.00,,---,0.00,VWS V14.01,2013-05-22 16:45:00,
2013-05-22 12:50:00,84.6,37.8,29.88,SW,225,3.1,3.1,19,0.00,,---,0.00,VWS V14.01,2013-05-22 16:50:00,
2013-05-22 12:55:00,85.1,38.2,29.88,SSW,202,2.7,6.3,19,0.00,,---,0.00,VWS V14.01,2013-05-22 16:55:00,
2013-05-22 13:00:00,84.9,38.1,29.88,SW,225,3.1,4.9,19,0.00,,---,0.00,VWS V14.01,2013-05-22 17:00:00,
2013-05-22 13:05:00,85.3,38.4,29.88,SW,225,3.1,3.6,19,0.00,,---,0.00,VWS V14.01,2013-05-22 17:05:00,
2013-05-22 13:10:00,85.5,38.5,29.88,SW,225,6.3,8.3,19,0.00,,---,0.00,VWS V14.01,2013-05-22 17:10:00,
2013-05-22 13:15:00,85.1,38.2,29.88,SW,225,8.1,8.1,19,0.00,,---,0.00,VWS V14.01,2013-05-22 17:15:00,
2013-05-22 13:20:00,84.4,36.3,29.88,SSW,202,4.0,8.1,18,0.00,,---,0.00,VWS V14.01,2013-05-22 17:20:00,
2013-05-22 13:25:00,85.3,38.4,29.88,WNW,292,8.3,8.3,19,0.00,,---,0.00,VWS V14.01,2013-05-22 17:25:00,
2013-05-22 13:30:00,85.5,34.2,29.88,SW,225,3.1,7.6,16,0.00,,---,0.00,VWS V14.01,2013-05-22 17:30:00,
2013-05-22 13:35:00,85.6,34.3,29.88,SSW,202,5.8,5.8,16,0.00,,---,0.00,VWS V14.01,2013-05-22 17:35:00,
2013-05-22 13:40:00,86.5,38.0,29.88,SW,225,5.4,5.8,18,0.00,,---,0.00,VWS V14.01,2013-05-22 17:40:00,
2013-05-22 13:45:00,86.7,35.2,29.88,West,270,7.2,8.7,16,0.00,,---,0.00,VWS V14.01,2013-05-22 17:45:00,
2013-05-22 13:50:00,86.9,35.3,29.88,NW,315,2.2,2.7,16,0.00,,---,0.00,VWS V14.01,2013-05-22 17:50:00,
2013-05-22 13:55:00,86.9,35.3,29.88,SW,225,7.6,8.7,16,0.00,,---,0.00,VWS V14.01,2013-05-22 17:55:00,
2013-05-22 14:00:00,86.7,35.2,29.88,SW,225,5.4,6.3,16,0.00,,---,0.00,VWS V14.01,2013-05-22 18:00:00,
2013-05-22 14:05:00,87.3,35.6,29.88,West,270,3.1,4.0,16,0.00,,---,0.00,VWS V14.01,2013-05-22 18:05:00,
2013-05-22 14:10:00,86.4,34.9,29.88,SW,225,12.3,12.3,16,0.00,,---,0.00,VWS V14.01,2013-05-22 18:10:00,
2013-05-22 14:15:00,86.5,35.1,29.88,NW,315,9.6,9.6,16,0.00,,---,0.00,VWS V14.01,2013-05-22 18:15:00,
2013-05-22 14:20:00,86.4,34.9,29.88,SE,135,7.6,9.2,16,0.00,,---,0.00,VWS V14.01,2013-05-22 18:20:00,
2013-05-22 14:25:00,86.4,34.9,29.88,North,0,4.9,7.6,16,0.00,,---,0.00,VWS V14.01,2013-05-22 18:25:00,
2013-05-22 14:30:00,87.1,35.5,29.88,SW,225,6.3,8.1,16,0.00,,---,0.00,VWS V14.01,2013-05-22 18:30:00,
2013-05-22 14:35:00,86.9,30.2,29.88,SW,225,6.3,12.3,13,0.00,,---,0.00,VWS V14.01,2013-05-22 18:35:00,
2013-05-22 14:40:00,87.1,35.5,29.88,SW,225,3.1,7.6,16,0.00,,---,0.00,VWS V14.01,2013-05-22 18:40:00,
2013-05-22 14:45:00,86.9,30.2,29.88,SW,225,5.8,7.6,13,0.00,,---,0.00,VWS V14.01,2013-05-22 18:45:00,
2013-05-22 14:50:00,87.1,35.5,29.88,South,180,6.3,6.3,16,0.00,,---,0.00,VWS V14.01,2013-05-22 18:50:00,
2013-05-22 14:55:00,87.1,30.3,29.85,SW,225,3.1,6.3,13,0.00,,---,0.00,VWS V14.01,2013-05-22 18:55:00,
2013-05-22 15:00:00,87.6,30.8,29.85,SW,225,8.7,8.7,13,0.00,,---,0.00,VWS V14.01,2013-05-22 19:00:00,
2013-05-22 15:05:00,86.4,29.8,29.85,WNW,292,3.1,10.5,13,0.00,,---,0.00,VWS V14.01,2013-05-22 19:05:00,
2013-05-22 15:10:00,85.8,34.5,29.85,SW,225,8.1,8.1,16,0.00,,---,0.00,VWS V14.01,2013-05-22 19:10:00,
2013-05-22 15:15:00,86.7,30.0,29.85,SSW,202,5.8,5.8,13,0.00,,---,0.00,VWS V14.01,2013-05-22 19:15:00,
2013-05-22 15:20:00,87.3,30.5,29.85,SSE,158,3.6,8.7,13,0.00,,---,0.00,VWS V14.01,2013-05-22 19:20:00,
2013-05-22 15:25:00,87.1,30.3,29.85,SW,225,10.1,11.0,13,0.00,,---,0.00,VWS V14.01,2013-05-22 19:25:00,
2013-05-22 15:30:00,87.1,30.3,29.85,SW,225,3.6,7.2,13,0.00,,---,0.00,VWS V14.01,2013-05-22 19:30:00,
2013-05-22 15:35:00,87.8,30.9,29.85,SW,225,2.7,5.4,13,0.00,,---,0.00,VWS V14.01,2013-05-22 19:35:00,
2013-05-22 15:40:00,88.3,31.3,29.85,South,180,3.1,5.8,13,0.00,,---,0.00,VWS V14.01,2013-05-22 19:40:00,
2013-05-22 15:45:00,87.4,30.6,29.85,West,270,2.7,5.4,13,0.00,,---,0.00,VWS V14.01,2013-05-22 19:45:00,
2013-05-22 15:50:00,87.6,30.8,29.85,SW,225,2.2,7.2,13,0.00,,---,0.00,VWS V14.01,2013-05-22 19:50:00,
2013-05-22 15:55:00,87.3,30.5,29.85,SW,225,5.4,15.0,13,0.00,,---,0.00,VWS V14.01,2013-05-22 19:55:00,
2013-05-22 16:00:00,86.5,29.9,29.85,SW,225,4.9,10.1,13,0.00,,---,0.00,VWS V14.01,2013-05-22 20:00:00,
2013-05-22 16:05:00,85.6,29.2,29.85,SW,225,10.1,12.3,13,0.00,,---,0.00,VWS V14.01,2013-05-22 20:05:00,
2013-05-22 16:10:00,86.2,29.6,29.85,NW,315,4.0,8.1,13,0.00,,---,0.00,VWS V14.01,2013-05-22 20:10:00,
2013-05-22 16:16:00,86.7,30.0,29.85,West,270,6.3,9.6,13,0.00,,---,0.00,VWS V14.01,2013-05-22 20:16:00,
2013-05-22 16:21:00,87.6,30.8,29.85,South,180,3.6,4.9,13,0.00,,---,0.00,VWS V14.01,2013-05-22 20:21:00,
2013-05-22 16:26:00,87.1,30.3,29.85,West,270,8.3,8.7,13,0.00,,---,0.00,VWS V14.01,2013-05-22 20:26:00,
2013-05-22 16:31:00,86.4,29.8,29.85,South,180,2.7,5.8,13,0.00,,---,0.00,VWS V14.01,2013-05-22 20:31:00,
2013-05-22 16:36:00,85.5,29.1,29.85,NNW,338,4.0,11.0,13,0.00,,---,0.00,VWS V14.01,2013-05-22 20:36:00,
2013-05-22 16:41:00,86.0,29.5,29.85,SW,225,5.8,10.5,13,0.00,,---,0.00,VWS V14.01,2013-05-22 20:41:00,
2013-05-22 16:46:00,85.8,29.4,29.85,SW,225,7.6,7.6,13,0.00,,---,0.00,VWS V14.01,2013-05-22 20:46:00,
2013-05-22 16:51:00,85.3,28.9,29.85,West,270,3.6,10.1,13,0.00,,---,0.00,VWS V14.01,2013-05-22 20:51:00,
2013-05-22 16:56:00,84.9,28.6,29.85,WNW,292,8.1,14.1,13,0.00,,---,0.00,VWS V14.01,2013-05-22 20:56:00,
2013-05-22 17:01:00,85.1,28.8,29.85,SW,225,4.9,5.8,13,0.00,,---,0.00,VWS V14.01,2013-05-22 21:01:00,
2013-05-22 17:06:00,84.9,28.6,29.85,West,270,5.8,5.8,13,0.00,,---,0.00,VWS V14.01,2013-05-22 21:06:00,
2013-05-22 17:11:00,84.7,28.5,29.85,SW,225,7.2,7.6,13,0.00,,---,0.00,VWS V14.01,2013-05-22 21:11:00,
2013-05-22 17:16:00,84.9,28.6,29.85,West,270,2.2,3.6,13,0.00,,---,0.00,VWS V14.01,2013-05-22 21:16:00,
2013-05-22 17:21:00,84.9,28.6,29.85,WNW,292,4.0,8.7,13,0.00,,---,0.00,VWS V14.01,2013-05-22 21:21:00,
2013-05-22 17:26:00,84.4,28.2,29.85,West,270,3.1,3.1,13,0.00,,---,0.00,VWS V14.01,2013-05-22 21:26:00,
2013-05-22 17:31:00,83.8,29.6,29.85,SW,225,4.9,5.4,14,0.00,,---,0.00,VWS V14.01,2013-05-22 21:31:00,
2013-05-22 17:36:00,83.7,29.5,29.85,North,0,5.4,5.4,14,0.00,,---,0.00,VWS V14.01,2013-05-22 21:36:00,
2013-05-22 17:41:00,84.0,29.8,29.85,South,180,3.6,8.1,14,0.00,,---,0.00,VWS V14.01,2013-05-22 21:41:00,
2013-05-22 17:46:00,84.0,29.8,29.85,South,180,4.0,5.4,14,0.00,,---,0.00,VWS V14.01,2013-05-22 21:46:00,
2013-05-22 17:51:00,84.0,29.8,29.85,WNW,292,0.0,0.0,14,0.00,,---,0.00,VWS V14.01,2013-05-22 21:51:00,
2013-05-22 17:56:00,83.7,29.5,29.85,WNW,292,0.0,2.7,14,0.00,,---,0.00,VWS V14.01,2013-05-22 21:56:00,
2013-05-22 18:01:00,83.3,29.2,29.85,West,270,3.1,3.1,14,0.00,,---,0.00,VWS V14.01,2013-05-22 22:01:00,
2013-05-22 18:06:00,82.6,28.6,29.85,NW,315,2.2,3.6,14,0.00,,---,0.00,VWS V14.01,2013-05-22 22:06:00,
2013-05-22 18:11:00,82.2,33.1,29.82,WNW,292,3.6,3.6,17,0.00,,---,0.00,VWS V14.01,2013-05-22 22:11:00,
2013-05-22 18:16:00,82.2,28.3,29.82,WSW,248,2.2,3.1,14,0.00,,---,0.00,VWS V14.01,2013-05-22 22:16:00,
2013-05-22 18:21:00,82.2,33.1,29.82,NW,315,0.0,0.0,17,0.00,,---,0.00,VWS V14.01,2013-05-22 22:21:00,
2013-05-22 18:26:00,81.9,28.0,29.85,West,270,2.2,5.8,14,0.00,,---,0.00,VWS V14.01,2013-05-22 22:26:00,
2013-05-22 18:31:00,81.9,32.8,29.85,South,180,2.2,2.7,17,0.00,,---,0.00,VWS V14.01,2013-05-22 22:31:00,
2013-05-22 18:36:00,81.7,32.7,29.85,WSW,248,4.0,4.0,17,0.00,,---,0.00,VWS V14.01,2013-05-22 22:36:00,
2013-05-22 18:41:00,81.7,32.7,29.85,West,270,2.7,4.9,17,0.00,,---,0.00,VWS V14.01,2013-05-22 22:41:00,
2013-05-22 18:46:00,81.7,32.7,29.85,West,270,0.0,0.0,17,0.00,,---,0.00,VWS V14.01,2013-05-22 22:46:00,
2013-05-22 18:51:00,81.9,32.8,29.85,East,90,0.0,3.6,17,0.00,,---,0.00,VWS V14.01,2013-05-22 22:51:00,
2013-05-22 18:56:00,82.0,33.0,29.85,SW,225,3.1,4.0,17,0.00,,---,0.00,VWS V14.01,2013-05-22 22:56:00,
2013-05-22 19:01:00,81.1,32.2,29.85,North,0,0.0,0.0,17,0.00,,---,0.00,VWS V14.01,2013-05-22 23:01:00,
2013-05-22 19:06:00,80.1,35.4,29.85,NW,315,2.2,3.1,20,0.00,,---,0.00,VWS V14.01,2013-05-22 23:06:00,
2013-05-22 19:11:00,79.5,35.0,29.85,North,0,0.0,0.0,20,0.00,,---,0.00,VWS V14.01,2013-05-22 23:11:00,
2013-05-22 19:16:00,79.2,35.9,29.85,NW,315,0.0,0.0,21,0.00,,---,0.00,VWS V14.01,2013-05-22 23:16:00,
2013-05-22 19:21:00,79.3,36.0,29.85,SW,225,3.1,3.1,21,0.00,,---,0.00,VWS V14.01,2013-05-22 23:21:00,
2013-05-22 19:26:00,79.5,35.0,29.85,SW,225,0.0,0.0,20,0.00,,---,0.00,VWS V14.01,2013-05-22 23:26:00,
2013-05-22 19:31:00,79.7,35.1,29.85,West,270,2.2,3.6,20,0.00,,---,0.00,VWS V14.01,2013-05-22 23:31:00,
2013-05-22 19:36:00,80.1,35.4,29.85,NNW,338,4.9,4.9,20,0.00,,---,0.00,VWS V14.01,2013-05-22 23:36:00,
2013-05-22 19:41:00,79.9,31.2,29.82,West,270,3.6,8.1,17,0.00,,---,0.00,VWS V14.01,2013-05-22 23:41:00,
2013-05-22 19:46:00,79.9,31.2,29.82,SW,225,4.9,4.9,17,0.00,,---,0.00,VWS V14.01,2013-05-22 23:46:00,
2013-05-22 19:51:00,79.7,31.1,29.82,SW,225,5.4,5.4,17,0.00,,---,0.00,VWS V14.01,2013-05-22 23:51:00,
2013-05-22 19:56:00,79.7,31.1,29.82,SW,225,6.3,6.3,17,0.00,,---,0.00,VWS V14.01,2013-05-22 23:56:00,
2013-05-22 20:01:00,79.3,30.8,29.82,SW,225,4.0,5.4,17,0.00,,---,0.00,VWS V14.01,2013-05-23 00:01:00,
2013-05-22 20:06:00,79.3,30.8,29.82,SW,225,2.2,3.1,17,0.00,,---,0.00,VWS V14.01,2013-05-23 00:06:00,
2013-05-22 20:11:00,79.0,30.5,29.85,WSW,248,0.0,2.2,17,0.00,,---,0.00,VWS V14.01,2013-05-23 00:11:00,
2013-05-22 20:16:00,78.8,30.4,29.85,South,180,3.6,4.0,17,0.00,,---,0.00,VWS V14.01,2013-05-23 00:16:00,
2013-05-22 20:21:00,78.4,31.5,29.85,SW,225,4.0,4.0,18,0.00,,---,0.00,VWS V14.01,2013-05-23 00:21:00,
2013-05-22 20:26:00,78.1,33.8,29.82,West,270,2.2,4.0,20,0.00,,---,0.00,VWS V14.01,2013-05-23 00:26:00,
2013-05-22 20:31:00,77.7,30.9,29.82,West,270,8.1,8.1,18,0.00,,---,0.00,VWS V14.01,2013-05-23 00:31:00,
2013-05-22 20:36:00,77.7,30.9,29.82,South,180,5.8,5.8,18,0.00,,---,0.00,VWS V14.01,2013-05-23 00:36:00,
2013-05-22 20:41:00,77.9,31.0,29.82,WSW,248,5.8,5.8,18,0.00,,---,0.00,VWS V14.01,2013-05-23 00:41:00,
2013-05-22 20:46:00,77.9,31.0,29.82,SW,225,0.0,7.6,18,0.00,,---,0.00,VWS V14.01,2013-05-23 00:46:00,
2013-05-22 20:51:00,77.7,30.9,29.82,SW,225,3.1,3.1,18,0.00,,---,0.00,VWS V14.01,2013-05-23 00:51:00,
2013-05-22 20:56:00,77.5,26.3,29.82,WSW,248,2.2,2.2,15,0.00,,---,0.00,VWS V14.01,2013-05-23 00:56:00,
2013-05-22 21:01:00,77.5,30.7,29.82,SW,225,8.7,8.7,18,0.00,,---,0.00,VWS V14.01,2013-05-23 01:01:00,
2013-05-22 21:06:00,77.7,30.9,29.82,SW,225,2.7,2.7,18,0.00,,---,0.00,VWS V14.01,2013-05-23 01:06:00,
2013-05-22 21:11:00,77.4,30.6,29.82,NW,315,4.0,4.0,18,0.00,,---,0.00,VWS V14.01,2013-05-23 01:11:00,
2013-05-22 21:16:00,77.4,30.6,29.82,SW,225,3.6,3.6,18,0.00,,---,0.00,VWS V14.01,2013-05-23 01:16:00,
2013-05-22 21:21:00,77.2,30.4,29.82,SW,225,2.7,2.7,18,0.00,,---,0.00,VWS V14.01,2013-05-23 01:21:00,
2013-05-22 21:26:00,77.0,30.3,29.82,SW,225,5.4,5.4,18,0.00,,---,0.00,VWS V14.01,2013-05-23 01:26:00,
2013-05-22 21:31:00,76.8,30.1,29.82,WNW,292,4.9,4.9,18,0.00,,---,0.00,VWS V14.01,2013-05-23 01:31:00,
2013-05-22 21:36:00,76.6,30.0,29.82,NW,315,4.0,4.0,18,0.00,,---,0.00,VWS V14.01,2013-05-23 01:36:00,
2013-05-22 21:41:00,74.7,34.4,29.85,West,270,6.3,6.3,23,0.00,,---,0.00,VWS V14.01,2013-05-23 01:41:00,
2013-05-22 21:46:00,72.5,41.0,29.85,SW,225,2.7,3.1,32,0.00,,---,0.00,VWS V14.01,2013-05-23 01:46:00,
2013-05-22 21:51:00,71.4,44.5,29.85,West,270,0.0,2.7,38,0.00,,---,0.00,VWS V14.01,2013-05-23 01:51:00,
2013-05-22 21:56:00,70.7,47.7,29.85,West,270,0.0,0.0,44,0.00,,---,0.00,VWS V14.01,2013-05-23 01:56:00,
2013-05-22 22:01:00,70.2,50.7,29.85,South,180,2.7,3.6,50,0.00,,---,0.00,VWS V14.01,2013-05-23 02:01:00,
2013-05-22 22:06:00,70.0,53.6,29.85,SW,225,2.7,2.7,56,0.00,,---,0.00,VWS V14.01,2013-05-23 02:06:00,
2013-05-22 22:11:00,69.8,54.4,29.85,SW,225,4.5,4.5,58,0.00,,---,0.00,VWS V14.01,2013-05-23 02:11:00,
2013-05-22 22:16:00,69.6,55.1,29.85,West,270,4.0,4.9,60,0.00,,---,0.00,VWS V14.01,2013-05-23 02:16:00,
2013-05-22 22:21:00,69.6,55.1,29.85,West,270,0.0,0.0,60,0.00,,---,0.00,VWS V14.01,2013-05-23 02:21:00,
2013-05-22 22:26:00,69.6,55.1,29.85,SW,225,0.0,0.0,60,0.00,,---,0.00,VWS V14.01,2013-05-23 02:26:00,
2013-05-22 22:31:00,69.4,55.0,29.85,West,270,0.0,0.0,60,0.00,,---,0.00,VWS V14.01,2013-05-23 02:31:00,
2013-05-22 22:36:00,69.3,55.2,29.85,WSW,248,0.0,0.0,61,0.00,,---,0.00,VWS V14.01,2013-05-23 02:36:00,
2013-05-22 22:41:00,69.1,55.1,29.85,SW,225,0.0,0.0,61,0.00,,---,0.00,VWS V14.01,2013-05-23 02:41:00,
2013-05-22 22:46:00,69.1,55.5,29.85,West,270,0.0,0.0,62,0.00,,---,0.00,VWS V14.01,2013-05-23 02:46:00,
2013-05-22 22:51:00,69.1,55.5,29.85,WSW,248,0.0,0.0,62,0.00,,---,0.00,VWS V14.01,2013-05-23 02:51:00,
2013-05-22 22:56:00,69.1,55.5,29.85,WNW,292,0.0,0.0,62,0.00,,---,0.00,VWS V14.01,2013-05-23 02:56:00,
2013-05-22 23:01:00,69.1,56.0,29.85,West,270,0.0,0.0,63,0.00,,---,0.00,VWS V14.01,2013-05-23 03:01:00,
2013-05-22 23:06:00,68.9,55.8,29.85,West,270,0.0,0.0,63,0.00,,---,0.00,VWS V14.01,2013-05-23 03:06:00,
2013-05-22 23:11:00,69.1,56.0,29.85,SW,225,0.0,0.0,63,0.00,,---,0.00,VWS V14.01,2013-05-23 03:11:00,
2013-05-22 23:16:00,69.1,56.0,29.85,SW,225,0.0,0.0,63,0.00,,---,0.00,VWS V14.01,2013-05-23 03:16:00,
2013-05-22 23:21:00,69.3,56.1,29.85,West,270,0.0,0.0,63,0.00,,---,0.00,VWS V14.01,2013-05-23 03:21:00,
2013-05-22 23:26:00,69.4,56.3,29.85,West,270,2.7,2.7,63,0.00,,---,0.00,VWS V14.01,2013-05-23 03:26:00,
2013-05-22 23:31:00,69.3,57.4,29.85,West,270,2.2,3.6,66,0.04,,---,0.04,VWS V14.01,2013-05-23 03:31:00,
2013-05-22 23:36:00,68.2,59.6,29.85,North,0,3.6,3.6,74,0.04,,---,0.04,VWS V14.01,2013-05-23 03:36:00,
2013-05-22 23:41:00,66.7,62.1,29.85,SW,225,3.6,4.0,85,0.04,,---,0.04,VWS V14.01,2013-05-23 03:41:00,
2013-05-22 23:46:00,66.2,62.5,29.85,NNW,338,0.0,3.1,88,0.08,,---,0.08,VWS V14.01,2013-05-23 03:46:00,
2013-05-22 23:51:00,65.7,62.7,29.85,NNW,338,0.0,0.0,90,0.08,,---,0.08,VWS V14.01,2013-05-23 03:51:00,
2013-05-22 23:56:00,65.1,62.4,29.85,South,180,0.0,0.0,91,0.08,,---,0.08,VWS V14.01,2013-05-23 03:56:00,